Location: Orange Harbor Mobile Home Park
(26.6923°N, 81.7937°W)
Time: 23:34:26
(UTC+00:00)

Cosmos 2285 Rocket - Visible Passes

Search period start: 23 January 2021 00:00
Search period end: 02 February 2021 00:00
Orbit: 971 x 998 km, 74.0° (Epoch: 23 January)

Date Brightness Start Highest point End Pass type
(mag) Time Alt. Az. Time Alt. Az. Time Alt. Az.
29 Jan 6.5 11:36:29 10° NNE 11:40:21 17° ENE 11:44:12 10° ESE visible
31 Jan 5.7 01:25:56 10° S 01:27:49 21° S 01:27:49 21° S visible
01 Feb 5.8 00:11:32 10° ESE 00:12:08 11° ESE 00:12:08 11° ESE visible
01 Feb 5.5 01:54:12 10° SSW 01:57:05 28° SW 01:57:05 28° SW visible
01 Feb 6.4 11:14:20 10° NNE 11:18:53 21° ENE 11:23:26 10° ESE visible
